Wind_Speed
8 8 7 6 4 4 6 7 8 7 8 8 8 8 7 6 5 5 5 5 5 5 5 5 4 4 3 3 2 2 2 3 7 6 8 8 7 10 10 9 8 7 7 8 8 10 14 16 17 18 19 20 22 25 26 27 28 28 29 29 29 29 29 28 28 27 26 24 23 22 20 20 19 19 19 19 19 19 19 19 19 19 20 22 23
9 8 8 6 5 6 6 8 9 8 8 8 8 7 7 6 5 4 3 3 4 4 4 4 5 4 4 3 3 2 2 2 4 5 6 7 8 12 12 12 11 10 8 9 10 10 12 15 17 18 19 20 21 24 26 27 28 28 29 29 29 29 29 29 28 27 26 24 22 21 20 19 19 19 18 18 17 17 17 18 18 18 19 21 22
9 8 8 7 6 7 7 9 10 9 9 8 7 7 6 5 4 3 2 2 2 2 3 4 4 4 4 4 4 3 3 2 0 2 3 4 6 10 12 14 14 12 10 9 10 11 12 14 17 18 19 20 21 23 25 27 28 29 29 29 29 29 29 29 29 27 25 24 22 20 19 18 18 18 17 17 16 16 16 16 17 17 18 19 21
8 9 8 7 7 8 9 10 10 10 10 8 7 6 5 4 3 2 1 1 1 1 2 3 3 4 4 4 4 4 4 4 3 2 1 2 3 6 10 13 14 13 11 9 9 9 11 13 17 19 19 20 21 23 25 27 28 29 29 29 29 29 29 29 29 27 25 23 21 19 18 17 17 17 16 16 15 15 15 15 15 16 17 18 20
8 10 9 9 9 9 10 10 10 10 10 8 6 5 5 4 3 1 0 1 2 2 2 3 4 5 5 6 6 6 6 5 5 5 3 1 1 3 7 10 12 12 12 10 8 7 10 13 17 19 20 20 22 24 25 26 28 29 29 29 29 29 29 29 29 28 25 23 21 19 17 16 15 16 16 15 14 13 13 13 14 14 15 17 18
9 11 10 10 10 10 10 10 11 11 10 8 6 5 4 3 2 0 1 2 2 2 2 3 4 6 6 7 8 8 7 7 7 8 6 4 2 1 3 7 10 11 11 10 8 6 8 13 17 19 21 21 22 24 25 27 28 29 29 29 29 29 29 29 29 28 26 23 21 19 16 15 14 14 14 14 13 13 12 12 12 13 14 15 17
11 11 11 11 11 11 11 11 11 11 11 9 7 5 4 2 1 1 2 3 4 4 3 3 4 5 6 7 8 9 9 9 9 9 8 6 5 3 1 3 7 10 10 9 8 5 7 12 16 19 22 22 23 25 26 27 28 29 29 30 29 28 29 29 28 28 26 23 21 18 16 14 12 12 12 12 12 11 11 10 11 12 13 14 16
11 11 12 12 12 12 11 11 11 12 11 10 7 5 4 2 1 2 3 4 5 5 5 4 5 5 6 7 7 8 9 9 9 9 8 7 6 5 3 1 4 7 8 8 7 6 6 11 15 19 22 23 23 25 26 27 28 29 29 30 29 28 29 29 28 28 27 24 21 18 16 14 12 10 10 10 10 10 10 9 9 11 12 13 15
11 12 12 12 12 11 11 11 11 12 11 8 6 5 3 2 3 3 4 5 5 6 6 5 5 5 5 6 7 8 8 8 8 7 7 6 5 4 3 2 2 3 4 6 6 6 7 10 13 17 22 24 24 25 26 27 28 29 29 30 29 27 28 29 28 27 26 24 22 19 16 14 12 9 8 7 7 8 8 8 8 9 11 13 14
11 11 11 11 11 10 11 11 12 12 9 6 5 4 3 3 4 5 5 5 5 5 6 6 5 5 5 6 7 7 7 7 7 6 5 4 4 4 4 4 4 3 3 4 4 5 7 9 11 16 22 25 24 25 26 27 28 29 29 30 29 27 27 28 28 27 25 24 22 20 18 15 12 10 7 6 5 5 6 7 7 8 10 11 13
10 10 10 9 9 9 10 11 12 11 9 7 6 4 4 5 5 6 6 6 5 4 5 5 5 5 5 6 6 6 6 6 6 5 4 3 2 3 4 5 6 5 5 4 4 4 6 8 9 13 22 25 25 25 26 27 28 29 30 30 30 28 27 27 27 26 25 24 22 21 18 16 13 10 7 5 3 3 4 5 6 7 9 10 12
9 9 9 8 9 9 10 11 11 10 9 9 6 5 6 6 6 6 6 6 6 5 4 4 3 4 4 5 5 5 5 5 5 3 3 3 1 3 4 4 5 6 7 7 6 5 4 7 8 12 21 25 25 25 25 27 28 29 30 30 30 29 27 26 26 26 25 24 22 20 19 16 13 10 8 5 3 2 2 4 5 6 8 9 10
8 9 8 8 8 8 9 10 10 9 9 8 6 6 7 8 7 6 6 6 6 5 5 4 3 2 3 4 5 5 4 5 4 3 3 3 1 4 6 5 5 6 8 8 8 6 4 6 8 11 20 24 25 24 24 27 28 29 29 29 30 30 27 26 25 25 24 23 22 20 18 17 14 12 9 6 4 2 1 3 4 5 7 8 9
9 8 7 6 6 7 8 9 8 8 7 6 5 6 8 8 7 6 6 7 6 7 6 5 4 3 3 4 5 5 5 4 4 3 2 2 2 5 7 6 6 7 8 9 9 7 5 5 8 10 17 23 25 24 24 26 28 28 29 29 29 30 29 26 25 25 24 23 22 20 19 17 15 13 10 7 5 3 2 1 3 4 6 7 8
9 7 6 5 5 6 7 7 7 7 6 5 5 6 8 8 7 7 7 8 7 8 7 5 5 5 5 5 5 5 5 5 4 4 3 3 3 5 7 7 7 8 10 10 11 10 7 4 7 10 15 21 24 25 24 24 27 27 27 28 29 30 30 28 26 25 24 23 22 21 20 18 16 14 11 9 6 4 3 1 1 3 5 6 7
7 7 6 6 6 6 7 6 6 6 4 4 5 6 7 7 7 8 9 8 8 8 7 6 7 7 7 7 6 6 6 5 5 5 4 4 5 6 7 7 8 9 10 11 12 13 11 6 6 10 13 19 23 25 25 24 25 27 27 27 28 29 30 29 27 25 24 23 22 21 20 19 17 15 13 10 8 6 4 3 2 2 4 5 6
7 8 8 7 7 7 7 6 5 5 3 4 5 6 7 7 7 8 9 9 9 8 8 8 8 7 8 8 7 7 7 6 6 6 5 5 6 7 7 8 9 9 10 11 13 14 14 10 6 9 12 17 23 25 26 25 24 25 26 26 27 28 29 29 28 27 25 24 22 22 21 20 18 16 14 12 10 8 7 5 3 3 3 4 5
9 9 8 7 6 6 5 4 4 4 3 4 5 7 8 8 8 9 10 11 10 9 10 10 8 8 8 8 7 7 7 7 7 6 6 6 7 7 8 9 10 9 10 10 12 14 15 12 8 9 12 15 22 25 26 27 24 24 25 26 26 27 28 28 28 28 26 25 23 22 21 20 19 18 16 14 13 12 10 8 6 4 3 4 4
8 8 7 5 4 3 3 3 3 3 3 4 4 6 8 8 8 10 11 12 11 10 10 9 8 8 8 7 6 6 6 6 6 6 6 6 7 8 8 9 10 10 10 10 10 12 14 13 10 9 13 15 21 25 26 27 26 24 25 25 25 26 27 27 27 27 27 26 24 22 22 21 20 19 17 16 14 13 12 9 7 5 5 4 4
7 5 4 4 3 2 2 3 4 4 4 5 6 7 8 8 9 11 12 11 12 11 9 8 8 8 8 7 6 7 6 6 6 6 6 7 8 8 8 8 9 9 10 10 9 10 11 12 10 10 14 15 20 25 26 27 27 25 24 24 25 25 25 26 26 27 27 27 25 23 22 22 21 20 18 17 16 14 12 10 8 7 6 5 4
5 4 3 3 2 2 3 4 4 5 6 6 7 8 8 9 10 12 12 11 11 10 9 9 8 7 7 7 7 7 7 7 7 7 7 7 8 8 7 7 8 9 10 8 7 8 9 10 10 10 14 15 19 24 26 26 27 26 25 24 24 25 25 25 26 26 26 26 26 24 23 22 21 20 19 18 17 15 13 11 10 8 7 6 5
5 4 4 3 3 3 4 5 5 6 7 8 9 10 10 10 10 12 12 10 10 10 10 9 9 8 7 7 7 8 8 8 8 7 7 7 8 7 7 7 7 8 8 7 6 6 6 8 10 9 13 16 18 24 26 26 26 25 25 24 24 24 25 25 25 26 26 26 25 25 23 22 20 19 19 18 17 15 13 12 11 10 9 8 6
6 5 5 5 4 4 5 6 7 8 9 9 10 10 10 10 11 12 12 10 10 11 11 10 9 9 8 7 8 9 9 9 9 7 7 7 6 5 5 5 5 5 5 5 6 6 4 5 7 7 11 15 17 23 26 27 27 25 25 24 23 24 25 25 25 25 25 25 24 24 24 22 20 19 18 17 16 15 14 13 12 11 10 9 7
6 6 5 5 4 5 6 7 8 9 10 10 10 10 11 11 11 13 13 12 11 12 12 11 10 11 9 8 9 10 10 10 10 8 7 7 5 4 4 4 3 3 3 4 4 5 4 3 3 4 9 14 16 21 26 27 27 26 25 24 23 23 24 25 25 24 24 23 23 23 23 21 19 18 17 17 16 15 14 13 12 11 10 9 7
5 5 5 5 5 6 7 8 9 10 11 11 11 11 11 11 12 13 13 13 12 13 14 13 12 12 11 10 10 11 11 10 10 9 8 7 6 5 5 4 3 3 2 2 3 4 5 4 2 2 7 13 14 19 25 27 28 27 25 24 23 23 24 25 25 24 23 23 22 22 22 21 19 18 17 16 15 14 13 13 12 11 10 9 7
4 5 5 6 6 7 8 9 10 12 12 12 11 11 11 11 12 13 14 13 14 15 15 14 13 13 13 12 12 12 11 10 10 10 8 8 7 6 7 6 5 4 3 3 3 3 4 4 2 2 5 11 14 16 22 27 28 28 27 25 24 24 24 24 25 24 23 22 22 21 21 20 19 18 16 15 14 14 13 12 12 11 10 9 8
4 5 5 6 8 9 10 11 12 13 13 13 12 12 12 12 12 12 13 13 14 16 17 16 15 15 14 14 13 12 11 10 10 10 9 10 9 8 7 7 6 5 4 4 4 3 4 4 4 4 5 9 13 14 18 24 27 28 27 26 25 24 24 24 25 25 24 23 22 21 21 20 19 18 16 15 15 14 13 12 11 11 10 10 9
4 5 7 9 10 11 12 13 14 14 14 13 13 12 12 12 12 12 13 13 13 15 17 18 17 16 16 16 15 14 12 11 11 10 11 11 11 9 9 9 9 7 5 4 4 4 5 4 5 8 8 8 12 14 16 20 25 28 28 27 26 25 24 24 25 25 24 23 22 22 21 20 19 18 17 16 15 15 14 13 12 11 11 10 9
5 8 9 11 12 13 14 14 14 15 14 13 13 12 12 12 13 13 12 12 12 13 16 18 17 17 18 18 16 15 13 11 11 11 11 12 10 10 10 10 11 10 8 5 4 4 5 5 7 8 9 8 10 13 16 17 21 27 29 28 27 26 25 24 25 25 25 24 23 23 22 21 20 18 17 16 16 15 14 14 13 13 12 11 11
8 10 12 14 14 14 13 13 13 13 12 12 12 12 11 12 12 13 12 12 12 12 13 15 17 17 19 19 17 16 14 12 12 12 12 12 9 9 11 11 12 13 11 8 7 5 3 3 5 6 7 9 10 12 14 17 19 23 28 29 28 27 26 25 25 25 26 26 25 24 23 22 21 19 18 17 17 16 15 15 14 14 14 13 12
9 11 12 13 13 13 11 10 10 9 10 10 10 11 11 11 12 12 12 13 12 11 11 13 15 16 19 20 19 17 15 13 14 14 13 12 9 10 13 13 13 13 12 11 11 10 7 6 3 3 5 7 9 11 12 15 17 20 25 29 29 28 27 26 25 25 26 26 26 25 24 23 23 22 20 19 18 17 17 16 16 16 15 15 14
7 8 8 8 9 9 9 8 8 8 9 9 10 10 11 11 11 11 11 12 12 11 12 14 15 15 17 19 20 19 17 15 15 14 13 12 8 11 14 12 11 12 13 13 14 13 11 10 8 5 5 6 7 9 10 13 15 17 21 27 30 29 28 27 26 26 26 27 27 27 26 25 24 24 22 21 20 19 18 18 18 17 17 16 16
5 6 7 7 8 7 7 7 8 9 10 10 11 11 11 11 11 11 10 11 12 12 14 17 16 14 15 17 20 21 20 18 17 14 15 14 10 11 13 8 8 12 13 14 15 15 13 10 9 8 7 7 6 7 9 11 13 15 18 23 28 30 30 29 28 27 27 28 28 28 28 27 26 25 24 23 22 21 20 19 19 19 18 18 17
4 6 8 9 10 9 8 7 7 8 10 11 12 11 11 11 12 12 11 10 11 11 14 16 15 13 14 17 19 21 21 20 18 15 16 16 12 12 12 9 9 12 13 14 15 15 15 12 10 8 7 8 7 8 9 10 11 12 15 19 24 28 30 30 30 29 29 29 29 29 29 29 28 27 26 25 24 22 22 21 21 20 20 20 19
4 6 7 9 11 10 9 7 6 6 7 8 10 11 12 12 12 12 12 11 11 11 12 14 15 15 17 18 18 20 21 20 20 19 17 17 13 13 13 12 12 12 12 14 15 15 15 14 11 9 8 7 8 8 9 9 9 10 12 14 18 24 28 30 31 31 31 29 29 29 29 29 29 28 27 26 25 24 23 23 22 22 22 22 21
3 4 6 8 10 10 10 7 6 7 7 7 8 9 10 12 13 13 13 13 13 13 13 14 15 17 20 19 18 20 21 21 22 22 20 17 16 15 14 14 14 13 13 13 15 16 15 14 12 10 9 8 7 8 9 8 8 9 9 9 11 16 23 28 31 31 31 31 30 29 29 29 29 29 29 28 27 26 25 25 24 24 24 24 23
3 3 3 6 9 9 10 9 8 10 10 10 10 9 8 9 10 12 13 13 14 15 15 16 16 18 19 19 20 22 21 21 23 23 21 18 17 17 15 16 16 15 15 15 15 14 14 14 13 13 12 10 8 8 8 7 8 9 9 9 6 7 14 22 28 31 31 31 31 30 29 29 29 30 30 29 29 28 28 27 27 26 26 26 26
4 2 1 4 6 8 10 10 10 12 13 13 13 12 10 8 7 8 10 11 12 14 16 17 18 19 19 20 21 22 22 22 23 23 22 19 20 19 17 17 17 16 16 16 14 13 13 14 16 16 15 12 10 10 8 7 8 8 10 11 7 4 8 14 22 28 30 31 31 30 28 28 28 28 29 29 29 29 29 29 29 29 28 28 28
6 3 1 2 4 7 9 10 11 12 14 16 15 15 14 10 7 6 6 7 9 11 13 14 16 18 20 20 21 22 22 22 22 22 22 22 22 21 19 18 17 17 16 15 15 14 13 14 17 18 17 15 12 11 10 8 9 10 11 11 7 5 6 9 13 19 25 29 29 29 27 27 27 27 27 28 28 28 28 29 29 29 29 29 29
8 5 3 0 2 5 8 9 10 11 13 16 17 17 17 13 10 8 6 6 6 7 9 11 13 15 17 19 20 21 21 20 21 21 22 23 24 23 22 21 19 18 16 16 17 17 15 14 16 17 16 15 14 13 10 7 9 12 13 13 9 7 8 8 10 13 17 23 25 26 25 25 26 26 26 26 27 27 28 28 28 28 29 29 29
10 6 4 2 1 3 5 6 7 9 10 15 18 18 18 16 12 9 7 6 5 6 6 7 9 11 13 15 17 18 19 19 19 20 21 22 23 25 26 25 23 21 19 17 17 17 16 14 15 17 16 15 14 12 9 6 7 11 14 16 13 10 10 9 10 10 11 15 19 21 23 23 24 24 25 26 27 27 28 28 28 28 28 28 28
10 6 5 4 2 2 4 4 6 7 9 13 16 18 19 17 13 9 7 5 4 5 5 5 6 8 9 11 13 14 15 16 17 18 19 19 21 23 26 26 26 25 23 20 18 15 13 14 15 16 15 14 13 11 9 6 7 8 11 16 16 11 10 10 9 9 8 10 13 15 18 19 20 21 23 23 24 25 26 28 29 29 29 29 28
12 9 8 6 4 3 5 5 6 7 8 11 13 16 18 17 12 9 6 5 4 4 4 5 5 6 7 8 9 11 11 12 14 15 16 16 17 19 22 24 24 25 25 23 21 16 12 14 15 15 14 13 12 12 11 9 8 8 9 10 16 13 11 11 10 9 8 8 10 11 13 14 15 17 18 19 20 21 22 23 24 26 28 29 29
15 12 10 7 5 5 7 7 8 9 9 10 11 14 18 17 12 8 6 5 4 4 4 5 5 4 3 4 6 8 9 10 11 11 12 12 13 15 17 19 20 22 24 24 23 20 16 14 15 15 13 12 12 13 14 12 11 9 7 4 10 11 11 11 10 9 9 9 10 10 10 11 12 14 15 16 17 18 18 19 20 22 24 26 27
17 13 11 9 7 7 9 10 10 10 10 10 10 13 17 16 12 7 6 6 5 3 2 3 2 1 1 1 2 4 6 7 7 8 9 10 9 10 12 14 15 18 21 23 24 22 19 16 15 15 14 13 13 15 17 16 15 14 9 6 5 6 8 10 11 11 10 11 12 11 11 10 11 12 13 14 15 16 17 18 19 21 22 24 25
17 13 12 11 10 10 12 12 12 12 12 11 10 12 16 15 11 6 5 5 4 3 2 2 2 2 2 2 2 2 4 5 5 5 6 7 8 8 8 9 11 14 17 20 22 22 21 19 18 17 16 15 15 16 17 16 16 16 14 12 9 7 9 11 12 13 13 13 13 13 13 13 13 13 13 13 14 14 15 16 17 19 20 22 23
17 13 12 11 10 11 13 14 14 13 12 12 11 12 15 15 11 5 3 3 3 3 2 2 2 1 0 1 2 3 3 4 4 4 4 5 5 6 6 7 7 9 12 15 18 19 20 21 21 21 20 19 18 18 17 17 17 17 16 16 15 13 12 13 14 14 15 15 14 15 15 15 15 15 16 15 15 16 16 16 17 18 19 20 21
17 13 10 9 9 10 13 16 14 13 13 12 12 12 13 14 10 5 3 2 1 1 0 0 1 2 3 4 4 5 5 6 5 5 4 4 4 4 5 5 6 7 8 10 13 15 16 18 19 20 21 21 21 20 20 20 20 20 19 19 19 17 17 17 16 16 16 17 16 17 18 17 17 18 18 18 18 18 19 19 19 20 20 21 22
18 14 11 8 8 10 12 13 12 11 11 10 12 12 13 13 9 5 4 4 3 2 2 2 3 4 6 7 7 7 7 8 8 7 6 5 5 5 5 5 5 6 7 8 9 10 11 12 13 15 16 17 18 18 19 19 19 20 20 20 20 20 20 20 20 20 21 21 20 21 21 20 20 21 21 21 20 20 21 21 22 22 22 23 23
19 17 14 12 10 10 9 9 9 9 9 10 12 12 12 12 9 6 5 5 5 4 3 3 4 7 8 9 9 8 8 8 8 9 8 8 7 7 7 6 6 6 6 7 8 9 9 9 9 10 11 12 13 13 14 15 15 16 17 18 18 19 20 20 21 23 24 25 26 25 24 24 23 23 23 23 22 22 22 23 23 23 23 23 23
19 19 17 15 13 11 8 7 8 9 9 11 13 11 11 11 9 7 6 6 6 5 4 3 5 7 8 9 9 9 9 8 8 8 8 9 8 8 8 8 8 7 7 7 8 8 8 8 8 8 8 9 10 10 11 11 12 12 13 14 15 16 17 18 19 20 22 23 25 26 26 26 25 24 25 24 24 24 24 24 25 25 25 25 25
Wind_Direction
220 221 217 211 196 181 155 141 141 145 143 136 130 121 114 112 114 114 105 102 99 98 94 91 84 77 68 50 34 6 32 106 132 169 203 185 209 229 218 218 216 195 171 159 154 161 169 170 168 165 164 166 165 162 159 159 159 158 156 154 151 149 147 144 142 141 139 136 132 128 125 121 117 112 106 101 95 89 84 80 76 71 66 62 58
213 218 215 206 190 183 163 152 151 154 154 145 140 131 124 122 125 119 105 102 96 94 88 77 66 58 52 43 42 28 17 84 161 195 207 193 202 214 214 216 214 206 191 172 166 169 174 176 173 170 168 168 168 167 163 161 162 161 159 157 155 152 150 148 146 144 142 139 136 132 127 123 118 114 109 104 98 91 86 81 76 70 65 61 56
205 206 206 198 183 180 169 162 158 161 164 156 149 143 138 132 131 124 105 92 83 78 75 67 59 56 55 46 38 25 1 4 280 235 221 204 198 203 208 213 215 211 204 186 175 174 176 178 177 174 172 171 170 171 168 164 164 164 163 161 158 155 153 151 149 148 146 143 140 135 130 125 119 115 111 107 101 94 88 83 77 70 64 59 55
206 197 197 186 176 179 176 169 164 169 171 164 160 156 150 140 137 135 106 59 39 32 58 65 66 66 59 53 43 28 12 2 355 341 281 196 180 192 200 209 214 213 211 199 184 178 179 179 178 177 175 173 172 174 173 168 167 166 166 165 161 159 157 155 153 151 150 148 144 140 134 128 122 117 112 108 103 97 89 83 77 70 63 58 53
206 195 189 177 176 182 184 175 170 176 176 171 170 166 159 150 148 156 18 354 356 3 35 48 48 51 48 46 42 34 27 17 12 12 12 35 127 178 197 208 211 213 215 205 193 186 184 181 179 180 178 176 174 176 177 173 170 169 169 169 165 163 161 159 157 154 154 153 150 146 140 133 126 120 114 109 105 99 91 83 75 68 61 56 52
205 196 184 178 178 180 189 182 178 182 180 178 178 178 170 158 155 213 312 327 331 331 359 26 29 36 39 38 36 35 33 30 25 23 32 40 54 146 193 204 208 212 216 209 199 198 190 184 182 182 180 178 177 177 180 177 173 172 172 172 170 167 165 163 161 158 157 158 156 152 147 140 132 125 118 111 105 100 92 84 75 66 59 53 50
202 196 188 184 180 181 191 187 185 187 185 184 183 183 178 168 178 308 319 324 321 318 327 357 9 21 27 27 29 30 30 34 33 28 33 39 47 56 73 207 211 207 210 209 205 210 197 186 184 184 182 181 179 179 181 181 177 176 176 175 174 172 170 168 165 162 161 161 161 159 155 150 142 132 122 114 106 99 91 83 73 63 55 50 47
202 197 193 190 186 185 189 187 189 192 190 186 181 183 186 197 235 291 313 320 320 322 329 344 358 11 18 18 23 25 26 32 34 32 31 29 43 48 29 321 229 213 214 219 218 219 202 188 186 186 185 183 182 181 183 184 181 179 179 179 177 176 174 172 170 168 165 165 165 165 163 160 153 143 130 118 107 99 89 79 69 60 52 46 44
205 200 197 193 190 188 189 185 190 197 191 181 179 188 200 234 263 289 304 315 321 329 336 348 1 11 16 18 21 24 24 25 25 32 31 17 15 12 3 335 270 236 239 246 244 227 204 193 190 189 188 185 184 183 184 185 184 183 183 182 181 180 179 176 175 174 170 169 169 169 170 170 165 157 143 126 110 99 88 76 65 56 49 44 41
206 204 199 195 189 188 191 184 190 197 186 175 185 195 220 260 278 294 298 307 319 331 340 351 8 17 20 23 23 25 24 20 20 28 29 13 353 332 325 310 291 280 275 270 264 233 208 205 196 190 189 187 185 185 185 186 187 186 186 186 184 184 184 181 179 179 176 174 173 174 176 177 176 171 161 143 120 101 86 74 64 54 47 43 38
204 202 198 193 187 187 188 185 196 198 179 179 197 211 240 262 275 286 290 303 309 317 336 347 16 31 22 20 21 25 22 18 21 26 17 4 339 308 305 299 290 287 287 287 288 255 214 211 205 189 187 188 186 186 187 188 189 189 189 189 187 186 188 187 184 184 183 181 179 179 181 183 184 182 179 170 146 112 84 71 65 53 45 40 36
201 199 195 191 186 185 183 184 195 194 180 184 203 228 244 256 269 279 287 299 296 299 321 336 16 41 19 9 8 13 10 8 16 19 359 339 303 280 274 277 290 287 281 287 298 289 229 209 207 190 185 187 187 187 188 190 191 192 191 192 191 188 191 192 189 188 188 188 187 186 187 189 192 193 193 196 190 150 87 75 67 52 41 35 32
200 200 197 192 184 185 183 184 191 191 185 188 203 226 237 251 268 278 280 285 284 291 305 314 332 10 3 348 347 352 350 351 354 353 351 341 288 256 256 256 279 282 278 283 296 301 266 213 203 193 186 186 187 188 190 192 193 194 193 194 195 192 192 195 194 193 193 194 194 193 194 195 198 201 202 205 207 193 117 86 62 47 36 28 25
196 196 195 190 182 187 188 189 193 194 193 191 195 218 232 246 262 266 265 271 274 283 292 296 300 309 319 320 325 331 334 334 330 328 336 334 268 245 252 255 264 270 274 276 283 295 293 230 203 195 190 187 187 188 191 194 195 196 196 195 197 196 194 196 198 197 197 198 199 199 200 201 203 206 208 209 210 202 169 103 46 32 25 19 17
191 186 186 186 184 192 197 197 200 206 204 191 194 215 227 235 242 242 247 256 261 268 276 282 284 284 289 294 304 313 318 316 310 309 307 303 276 258 256 259 260 264 268 269 274 282 291 261 209 199 194 191 189 188 190 195 197 198 198 198 199 200 198 197 199 201 201 202 203 205 205 206 208 210 212 212 212 206 195 190 9 8 6 6 7
194 191 193 195 195 201 207 208 214 224 213 191 207 219 220 224 226 229 237 244 249 254 260 267 273 275 281 282 288 297 300 302 295 293 291 282 283 273 259 260 260 261 267 270 275 277 281 277 223 205 199 196 193 192 191 194 198 199 200 200 200 202 202 200 200 201 204 205 206 208 208 209 210 211 213 214 217 215 211 226 279 332 345 351 356
202 208 209 208 206 211 217 217 224 235 214 194 216 225 220 222 223 225 230 233 237 243 251 258 265 271 276 278 284 288 284 286 282 277 273 267 277 273 261 266 267 264 268 272 275 275 275 276 249 214 204 200 197 196 195 193 196 200 201 201 201 203 205 204 203 203 205 207 209 210 211 210 210 211 211 211 212 213 215 225 247 288 318 332 342
208 214 216 215 211 215 223 223 233 243 230 210 217 225 226 227 225 227 230 233 235 237 245 254 264 271 277 279 281 282 277 274 272 270 266 269 277 271 267 268 268 269 268 269 272 273 273 272 259 223 209 203 198 198 198 195 194 199 203 203 202 204 206 207 206 206 206 208 210 212 214 213 212 212 212 211 208 209 212 220 233 256 282 305 323
207 209 210 208 204 211 224 231 243 250 252 246 236 231 232 232 229 235 240 241 243 242 243 254 268 272 273 273 273 273 270 267 264 269 274 279 282 273 267 261 261 266 265 266 265 265 269 268 259 226 209 203 198 198 199 197 194 197 203 204 204 204 206 208 208 209 209 210 212 214 216 216 216 215 216 217 215 215 216 221 229 245 263 280 301
190 189 190 191 193 209 232 247 256 261 263 263 258 246 239 236 231 236 244 244 247 252 252 260 269 272 270 266 265 261 259 263 263 272 278 283 286 276 262 251 253 259 259 264 265 262 265 264 258 228 207 200 196 197 199 198 196 196 201 204 205 205 206 208 209 210 211 213 213 214 217 219 220 220 221 223 223 224 226 229 236 245 257 268 280
169 173 180 187 200 220 243 254 261 268 267 264 260 256 247 239 233 235 241 244 252 260 260 260 261 267 269 260 257 252 250 257 263 272 279 283 287 279 260 242 239 247 253 263 275 272 269 264 257 228 205 199 193 196 199 199 199 198 199 204 206 206 207 208 209 210 212 214 215 215 217 220 222 224 225 227 229 230 234 239 246 252 257 261 264
180 186 193 200 214 231 246 255 263 266 266 265 261 260 254 244 238 238 242 243 246 254 254 251 250 256 261 253 249 247 248 252 257 267 273 277 283 280 263 243 238 247 254 261 268 267 274 270 259 229 200 198 193 194 198 198 199 200 200 203 206 208 208 208 210 211 212 215 216 216 217 220 223 226 228 230 233 235 239 244 251 255 257 257 253
196 199 203 207 218 238 253 264 270 270 268 266 263 261 256 248 242 240 244 241 237 249 250 244 244 251 254 248 243 242 246 252 257 262 264 268 274 280 268 252 247 252 260 262 260 251 256 274 265 234 200 199 195 193 197 198 199 201 202 202 206 208 209 210 211 212 213 215 217 218 218 219 221 226 229 232 236 239 243 248 251 252 252 252 245
199 201 204 211 229 252 267 277 279 278 274 271 266 262 255 247 242 240 243 240 232 238 240 235 240 246 249 245 240 240 244 251 257 260 257 255 259 267 264 257 260 258 262 268 271 264 251 258 274 240 205 203 200 194 197 199 199 201 203 203 205 209 210 211 212 213 214 215 217 219 220 220 221 224 228 232 236 240 244 248 249 246 245 245 239
196 203 212 229 251 269 280 286 286 284 279 274 269 263 256 247 241 238 241 240 226 222 229 230 234 240 243 243 241 240 244 249 253 255 249 244 245 246 241 234 237 239 247 258 272 282 261 244 259 259 217 210 209 200 198 200 200 201 204 205 206 209 210 211 212 213 214 215 215 218 220 220 221 223 226 231 234 238 241 243 242 240 238 237 234
209 220 233 252 272 287 295 297 293 289 284 279 273 266 260 251 242 236 237 238 223 217 224 227 229 233 237 241 242 241 247 249 247 250 247 243 239 234 231 227 226 229 230 236 248 266 265 255 257 292 242 217 216 209 201 200 201 202 204 205 207 209 211 211 212 213 214 214 214 215 218 219 219 221 224 227 229 232 234 234 235 234 233 231 232
214 239 260 278 292 299 301 302 298 293 288 283 277 270 265 258 249 238 233 233 223 217 221 224 225 225 230 238 240 241 246 245 243 245 243 242 241 236 236 232 230 232 230 225 230 235 250 265 260 273 274 230 221 218 207 202 202 204 204 205 207 209 211 212 212 213 213 214 213 213 214 216 216 217 219 221 223 225 226 225 226 226 226 227 230
228 261 278 290 296 299 299 299 297 293 287 283 279 274 269 264 257 246 237 232 224 219 220 222 223 221 225 234 236 237 241 242 241 240 238 238 238 238 237 234 235 237 237 229 219 210 217 227 219 238 261 245 227 224 216 207 203 205 207 206 207 209 211 212 212 213 213 213 212 212 211 212 213 214 216 218 220 220 220 218 217 217 219 222 227
262 282 290 297 297 297 296 294 291 288 286 283 280 277 274 270 263 255 246 238 228 219 219 222 223 220 222 230 234 235 240 244 242 237 238 237 236 241 240 236 239 241 237 228 219 203 198 192 185 213 244 246 233 227 222 215 206 205 208 208 207 209 211 212 213 213 213 213 212 212 211 211 211 212 215 217 219 219 217 216 213 213 214 218 224
294 300 301 303 302 299 294 290 287 284 284 285 285 283 280 276 269 261 252 244 233 220 218 222 224 222 222 228 233 237 243 243 242 240 240 240 238 246 250 243 241 241 235 225 231 234 217 200 177 194 231 242 235 229 224 221 213 207 208 210 209 209 211 212 213 213 214 214 213 212 212 212 212 212 214 216 218 218 217 216 215 214 214 217 222
309 310 308 306 305 303 297 287 280 277 280 286 288 288 285 279 272 266 258 250 239 224 221 227 228 227 227 230 232 237 242 241 242 244 246 248 242 247 252 247 244 246 246 241 242 248 250 250 231 195 219 238 238 232 227 224 221 213 209 211 212 210 211 213 213 214 215 215 214 213 213 214 215 215 216 216 218 219 218 217 217 217 217 219 223
320 323 325 323 321 315 305 290 277 272 274 280 283 283 281 278 274 270 262 254 245 229 227 231 231 231 232 234 234 236 240 240 243 248 254 256 251 253 253 251 257 256 254 253 251 252 254 253 254 251 241 240 244 240 235 231 227 222 214 212 213 212 211 212 214 214 215 216 216 215 214 216 217 219 219 220 220 220 220 220 220 221 222 223 228
337 345 351 354 351 335 315 298 284 276 273 274 277 278 277 274 271 268 262 255 249 236 227 229 231 233 236 239 237 236 237 237 240 247 258 256 244 254 261 266 272 257 246 248 251 253 255 256 252 248 244 240 245 248 245 241 236 231 223 216 214 214 212 212 213 215 216 217 218 217 217 218 219 221 223 224 224 223 223 223 223 224 226 228 232
344 352 357 0 360 352 337 319 300 285 275 272 272 273 272 270 268 266 261 255 250 241 232 231 233 234 241 245 240 236 237 237 235 236 251 257 241 243 262 268 260 253 246 244 247 249 252 257 253 244 241 236 234 238 241 244 243 239 234 226 219 217 215 212 212 214 216 217 219 219 220 221 222 224 225 227 228 227 226 226 227 228 230 233 236
335 348 356 4 4 1 357 346 328 313 300 291 283 275 268 263 262 261 260 255 248 243 238 237 235 233 238 243 239 235 237 238 235 230 239 255 247 232 246 257 256 256 254 249 248 248 247 250 253 250 247 241 236 235 235 238 245 247 243 237 228 223 220 216 213 214 216 218 219 220 221 223 225 226 228 230 231 231 231 230 231 233 235 238 241
310 336 358 10 9 8 8 1 351 347 340 331 317 296 278 265 259 257 258 257 254 249 242 239 236 234 237 237 231 231 235 239 240 239 239 247 247 232 233 247 254 258 259 256 252 249 246 245 250 255 257 255 247 239 236 234 244 255 258 251 238 230 225 221 218 216 216 217 219 220 221 223 226 228 230 231 233 234 235 235 235 237 239 242 244
271 312 1 17 12 12 14 12 8 3 356 349 346 335 313 286 270 262 260 259 258 255 249 244 240 238 239 237 230 229 234 238 241 244 241 240 245 241 237 241 247 256 261 261 256 251 247 244 246 250 255 258 251 245 245 243 245 257 270 269 253 236 230 224 221 219 218 218 219 221 222 223 225 228 231 233 234 236 238 239 240 241 243 245 247
248 268 1 23 15 15 18 18 15 10 3 357 358 359 349 323 296 276 265 261 257 256 253 248 244 242 241 240 237 235 236 237 239 243 242 239 241 241 242 244 248 255 260 264 266 263 256 246 241 240 245 252 254 251 251 259 260 259 263 262 255 242 238 230 225 222 220 219 220 221 222 224 226 228 231 234 236 238 241 243 244 245 246 248 251
238 232 178 33 17 17 19 19 15 11 5 1 3 7 5 353 331 307 286 274 265 261 256 251 248 245 244 243 243 244 242 240 241 243 243 242 242 241 241 243 248 253 258 263 264 262 257 248 241 237 238 246 252 251 251 260 264 254 247 247 241 224 233 238 234 229 224 222 222 222 223 225 227 230 232 235 238 240 242 245 247 249 250 252 254
233 219 194 152 15 15 16 13 9 8 6 3 3 6 7 1 348 335 317 299 285 274 264 257 254 250 249 248 249 251 251 250 248 247 245 245 247 247 245 243 244 248 253 256 256 256 255 251 247 242 238 241 245 247 249 257 262 254 241 231 216 197 206 221 230 232 230 227 225 224 225 226 229 231 233 236 239 241 243 245 247 249 251 253 255
230 218 196 194 297 1 5 357 355 1 5 3 0 1 4 2 352 343 334 320 307 292 279 269 263 259 257 255 255 256 257 258 257 255 251 248 249 251 251 249 247 247 249 252 256 258 258 259 256 249 244 243 241 240 238 248 262 256 243 229 210 192 195 200 208 214 222 225 224 223 223 225 228 230 234 236 239 241 243 244 245 247 249 251 254
227 212 195 204 232 308 332 319 326 343 358 0 357 356 358 360 354 347 344 337 326 311 297 286 276 271 267 265 264 263 263 262 260 259 257 254 252 253 253 252 251 249 247 250 256 259 259 258 256 252 249 246 243 233 220 230 247 256 262 238 209 198 202 196 197 200 207 216 216 218 219 220 223 226 231 235 238 241 243 244 244 245 247 249 251
224 209 205 215 225 257 279 280 297 320 344 353 351 351 354 356 354 351 355 355 352 339 317 302 291 283 276 274 272 271 270 268 265 263 261 259 256 255 256 254 252 248 245 246 251 255 254 251 251 252 250 245 242 231 219 226 244 269 296 244 204 205 213 202 201 204 207 213 211 213 214 213 217 221 225 229 234 238 242 243 243 244 245 247 250
228 220 217 220 220 240 262 268 285 303 326 341 343 346 349 352 351 354 12 19 16 356 322 303 293 287 287 283 279 277 276 275 273 270 268 266 261 258 258 257 254 250 245 244 247 251 252 251 252 254 254 249 243 238 231 232 241 260 300 252 203 212 219 215 221 218 212 215 215 216 215 216 221 223 224 227 231 235 238 240 240 241 243 245 248
234 229 224 224 225 236 253 263 276 293 313 325 333 342 344 347 348 358 30 39 36 19 320 284 259 189 76 9 322 300 293 288 283 278 275 275 272 266 261 258 254 251 246 244 245 248 250 251 253 255 256 252 245 243 242 240 242 244 254 257 233 232 236 239 239 230 221 220 222 224 225 227 231 232 232 232 235 239 241 243 243 243 244 245 247
238 230 226 225 229 238 249 260 269 281 299 310 319 334 339 342 344 357 39 59 70 75 97 148 152 132 99 58 7 328 315 309 300 291 283 279 280 278 273 263 255 251 247 244 243 243 245 247 251 253 254 252 248 248 248 248 247 242 240 241 244 253 265 266 254 239 231 229 231 235 237 239 239 240 241 241 242 245 248 250 251 251 250 250 251
238 228 224 223 230 242 249 255 263 272 287 299 307 322 331 335 339 349 22 63 94 103 114 130 151 158 175 312 314 307 302 302 302 300 291 284 284 284 284 278 265 257 252 248 245 242 242 244 248 251 253 252 252 251 250 250 251 249 245 244 243 243 249 261 264 254 241 236 238 244 246 246 245 245 244 245 247 248 249 252 254 256 256 255 254
238 224 213 214 229 242 249 253 257 266 279 290 296 307 323 330 333 337 352 13 44 79 121 163 253 277 297 301 301 296 291 289 289 291 289 285 284 284 284 281 274 264 256 254 251 248 245 245 247 249 251 251 251 253 252 252 254 253 251 250 248 244 240 244 253 256 251 244 241 245 249 249 248 247 245 247 250 250 250 252 255 258 258 257 256
232 216 197 196 220 238 251 255 256 262 272 283 287 294 313 326 329 327 335 350 356 350 334 327 322 315 312 310 306 300 292 285 282 284 285 285 285 284 285 281 278 271 263 260 258 256 252 248 247 247 248 250 250 251 253 253 254 254 254 253 252 250 246 241 241 244 247 246 244 245 249 251 251 249 247 249 252 253 253 253 255 256 255 255 256
223 213 201 193 204 224 240 246 248 253 259 270 278 285 304 320 325 321 323 334 342 345 341 340 335 328 325 323 321 315 306 293 283 279 277 279 281 282 284 283 280 276 271 267 265 267 266 261 256 252 252 255 255 254 254 254 254 255 255 255 254 253 251 247 243 242 243 245 247 247 248 249 252 253 252 251 252 254 256 256 255 253 250 251 254
212 210 207 200 199 207 219 232 240 243 247 260 269 276 294 314 321 318 316 320 329 337 339 342 341 334 336 338 336 332 325 314 300 288 279 275 273 274 278 280 280 277 273 271 269 271 273 273 271 266 262 263 264 264 262 261 260 259 259 258 258 256 256 254 251 248 248 248 250 251 249 248 248 251 253 253 254 255 256 256 255 252 250 251 255
Height
3158 3158 3158 3158 3158 3158 3158 3158 3159 3159 3160 3160 3160 3160 3160 3161 3161 3161 3161 3161 3161 3161 3161 3161 3161 3161 3161 3161 3161 3161 3162 3163 3164 3166 3167 3167 3167 3167 3167 3167 3168 3168 3169 3170 3171 3172 3172 3174 3175 3176 3177 3178 3179 3180 3180 3182 3183 3185 3186 3187 3188 3188 3189 3190 3191 3192 3193 3194 3195 3196 3196 3197 3197 3197 3197 3197 3196 3196 3196 3196 3196 3195 3195 3194 3194
3158 3158 3158 3158 3158 3158 3158 3158 3159 3159 3160 3160 3160 3160 3160 3161 3161 3161 3161 3161 3161 3161 3161 3161 3161 3161 3161 3161 3161 3161 3162 3163 3164 3165 3166 3165 3166 3166 3166 3167 3167 3168 3169 3169 3170 3171 3172 3174 3175 3176 3177 3178 3180 3181 3181 3182 3183 3185 3187 3187 3188 3189 3190 3190 3191 3192 3193 3194 3196 3196 3197 3198 3198 3198 3198 3198 3197 3197 3197 3197 3196 3196 3196 3195 3194
3157 3157 3158 3158 3158 3158 3158 3158 3158 3159 3159 3160 3160 3160 3160 3160 3161 3161 3161 3161 3161 3161 3161 3161 3161 3161 3162 3162 3162 3163 3163 3163 3163 3164 3164 3164 3165 3165 3165 3166 3167 3168 3168 3169 3170 3171 3172 3173 3175 3176 3177 3178 3180 3181 3182 3182 3184 3185 3187 3188 3189 3189 3190 3191 3192 3193 3194 3195 3196 3197 3198 3198 3198 3199 3199 3198 3198 3198 3198 3198 3197 3197 3197 3196 3195
3156 3157 3157 3157 3157 3157 3157 3158 3158 3158 3159 3159 3159 3160 3160 3160 3161 3161 3162 3162 3162 3162 3162 3162 3162 3163 3163 3163 3164 3164 3164 3164 3164 3163 3163 3164 3164 3164 3165 3165 3166 3167 3168 3169 3170 3171 3172 3173 3174 3176 3177 3178 3180 3181 3182 3183 3184 3185 3187 3188 3189 3190 3190 3191 3192 3193 3194 3195 3196 3197 3198 3199 3199 3199 3199 3199 3199 3199 3199 3199 3198 3198 3198 3197 3196
3156 3156 3157 3157 3157 3157 3157 3157 3157 3158 3158 3158 3159 3159 3160 3160 3161 3161 3162 3162 3163 3163 3163 3163 3163 3164 3164 3164 3164 3164 3164 3164 3164 3164 3164 3163 3163 3164 3164 3165 3166 3167 3168 3169 3170 3170 3171 3172 3173 3175 3177 3178 3180 3181 3182 3183 3184 3185 3187 3188 3189 3190 3191 3191 3192 3193 3194 3195 3196 3197 3198 3199 3199 3200 3200 3200 3200 3200 3200 3200 3199 3199 3198 3198 3197
3156 3156 3156 3156 3156 3156 3156 3156 3157 3157 3157 3158 3158 3159 3160 3160 3161 3161 3162 3162 3163 3163 3163 3164 3164 3164 3164 3164 3164 3164 3164 3164 3164 3164 3164 3164 3164 3164 3164 3164 3165 3166 3167 3169 3170 3170 3171 3171 3173 3174 3176 3178 3179 3181 3182 3183 3184 3185 3187 3188 3189 3190 3191 3192 3192 3193 3194 3196 3197 3198 3199 3199 3200 3200 3200 3201 3201 3201 3201 3200 3200 3200 3199 3199 3198
3155 3155 3156 3155 3156 3156 3156 3156 3156 3156 3157 3157 3158 3159 3160 3160 3161 3161 3162 3162 3162 3163 3163 3164 3164 3164 3164 3164 3164 3164 3164 3164 3164 3164 3164 3164 3164 3164 3165 3165 3165 3166 3167 3168 3169 3170 3170 3171 3172 3174 3175 3177 3179 3180 3182 3183 3184 3185 3186 3188 3189 3190 3191 3192 3193 3193 3194 3196 3197 3198 3199 3200 3200 3201 3201 3201 3201 3201 3201 3201 3201 3201 3200 3200 3199
3154 3155 3155 3155 3155 3156 3156 3156 3156 3156 3156 3157 3158 3159 3159 3160 3161 3161 3161 3162 3162 3162 3163 3164 3164 3164 3164 3164 3164 3164 3164 3164 3164 3164 3164 3164 3164 3165 3165 3165 3166 3167 3168 3168 3169 3170 3170 3171 3172 3173 3175 3176 3178 3180 3181 3183 3184 3185 3186 3187 3189 3190 3191 3192 3193 3194 3195 3196 3197 3198 3199 3200 3201 3201 3202 3202 3202 3202 3202 3202 3202 3201 3201 3200 3200
3154 3154 3154 3155 3155 3155 3156 3156 3156 3155 3156 3158 3158 3159 3159 3160 3160 3161 3161 3161 3162 3162 3163 3163 3163 3164 3164 3164 3164 3164 3164 3164 3164 3164 3164 3164 3164 3165 3165 3165 3166 3167 3168 3169 3169 3169 3170 3171 3171 3172 3174 3176 3178 3179 3181 3183 3184 3185 3186 3187 3189 3190 3191 3192 3194 3194 3195 3196 3197 3198 3200 3200 3201 3202 3202 3203 3203 3203 3203 3203 3202 3202 3202 3201 3201
3153 3154 3154 3155 3155 3155 3156 3156 3156 3155 3157 3159 3158 3159 3159 3160 3160 3160 3161 3161 3161 3162 3162 3163 3163 3163 3163 3164 3164 3164 3164 3164 3164 3164 3164 3164 3164 3164 3164 3165 3166 3167 3167 3168 3169 3169 3170 3170 3171 3172 3173 3175 3177 3179 3180 3182 3184 3185 3186 3187 3188 3190 3192 3193 3194 3195 3196 3197 3197 3199 3200 3201 3201 3202 3203 3203 3203 3203 3203 3203 3203 3203 3202 3202 3201
3153 3154 3154 3155 3155 3155 3156 3156 3155 3155 3158 3159 3158 3159 3159 3159 3160 3160 3160 3161 3161 3162 3162 3163 3163 3163 3163 3164 3164 3164 3164 3164 3164 3164 3164 3164 3164 3164 3164 3165 3166 3166 3167 3168 3169 3169 3170 3170 3171 3171 3173 3175 3177 3178 3180 3181 3183 3184 3185 3187 3188 3189 3191 3193 3194 3195 3196 3197 3198 3199 3199 3201 3202 3202 3203 3204 3204 3204 3204 3204 3203 3203 3203 3202 3202
3153 3153 3154 3155 3155 3155 3155 3156 3156 3156 3158 3159 3159 3159 3159 3159 3159 3159 3160 3160 3161 3161 3162 3162 3163 3163 3163 3164 3164 3164 3164 3164 3164 3164 3164 3164 3164 3164 3164 3165 3165 3166 3167 3168 3168 3169 3170 3170 3170 3171 3172 3174 3176 3177 3179 3181 3182 3184 3185 3186 3188 3189 3191 3193 3194 3195 3196 3197 3198 3199 3199 3201 3202 3202 3203 3204 3204 3204 3204 3204 3204 3204 3203 3203 3202
3153 3153 3154 3154 3155 3155 3156 3156 3156 3157 3158 3159 3159 3159 3159 3159 3159 3159 3159 3160 3160 3161 3161 3162 3162 3163 3163 3163 3164 3164 3164 3164 3164 3164 3164 3164 3164 3164 3164 3164 3165 3165 3166 3167 3168 3169 3170 3170 3170 3171 3172 3173 3175 3177 3178 3180 3181 3183 3184 3186 3187 3188 3190 3192 3193 3195 3196 3197 3198 3199 3199 3200 3201 3202 3203 3204 3204 3205 3205 3205 3204 3204 3203 3203 3203
3152 3153 3154 3154 3155 3155 3156 3156 3156 3157 3157 3158 3159 3159 3159 3159 3159 3159 3159 3160 3160 3160 3160 3161 3162 3162 3162 3163 3163 3163 3163 3163 3163 3163 3164 3164 3164 3164 3163 3164 3164 3165 3165 3166 3167 3168 3169 3170 3170 3171 3171 3172 3174 3176 3178 3179 3181 3182 3184 3185 3187 3188 3189 3191 3192 3194 3195 3196 3197 3198 3199 3200 3201 3202 3203 3203 3204 3204 3205 3205 3204 3204 3204 3203 3203
3152 3153 3154 3154 3155 3155 3156 3156 3156 3157 3157 3157 3158 3159 3159 3158 3159 3159 3159 3159 3159 3160 3160 3160 3161 3162 3162 3162 3163 3163 3163 3163 3163 3163 3163 3163 3164 3164 3163 3163 3163 3164 3164 3165 3166 3167 3168 3169 3170 3170 3171 3172 3173 3174 3176 3178 3180 3181 3183 3184 3186 3187 3188 3190 3191 3193 3194 3196 3197 3198 3199 3200 3201 3202 3202 3203 3204 3204 3204 3204 3204 3204 3204 3203 3203
3152 3152 3153 3154 3154 3155 3155 3155 3155 3156 3156 3157 3157 3158 3158 3158 3158 3159 3159 3159 3159 3159 3159 3160 3160 3161 3162 3162 3162 3162 3162 3162 3162 3162 3162 3162 3163 3163 3163 3162 3162 3163 3163 3164 3164 3165 3167 3168 3169 3169 3170 3171 3173 3173 3175 3177 3179 3181 3182 3184 3185 3186 3188 3189 3190 3192 3193 3195 3196 3197 3198 3199 3200 3201 3202 3203 3203 3204 3204 3204 3204 3204 3204 3203 3203
3151 3152 3152 3153 3154 3154 3155 3155 3155 3155 3155 3156 3156 3156 3157 3157 3157 3158 3159 3158 3158 3159 3159 3159 3160 3160 3161 3161 3161 3162 3162 3162 3161 3161 3161 3161 3162 3162 3162 3162 3161 3161 3162 3163 3163 3164 3165 3167 3168 3169 3169 3170 3172 3173 3174 3175 3177 3179 3181 3183 3184 3186 3187 3188 3190 3191 3192 3194 3195 3196 3197 3198 3199 3200 3201 3202 3202 3203 3203 3203 3203 3203 3203 3203 3203
3150 3151 3152 3152 3153 3153 3154 3154 3154 3154 3154 3155 3156 3156 3156 3157 3157 3158 3158 3157 3157 3158 3158 3159 3159 3159 3159 3160 3160 3161 3161 3161 3160 3160 3161 3160 3161 3161 3162 3161 3161 3160 3161 3161 3162 3162 3163 3164 3166 3167 3168 3169 3170 3172 3173 3174 3176 3178 3180 3181 3183 3185 3186 3188 3189 3190 3192 3193 3194 3195 3196 3197 3198 3199 3200 3201 3201 3201 3202 3202 3203 3203 3203 3203 3203
3149 3150 3151 3152 3152 3153 3153 3153 3153 3153 3154 3154 3155 3155 3156 3156 3156 3157 3157 3157 3157 3158 3158 3158 3158 3158 3158 3159 3159 3159 3160 3160 3160 3159 3160 3160 3160 3161 3161 3160 3160 3160 3160 3160 3160 3160 3161 3162 3164 3166 3167 3167 3169 3170 3172 3172 3174 3176 3178 3180 3182 3183 3185 3187 3188 3190 3191 3192 3193 3194 3195 3196 3197 3198 3199 3200 3200 3201 3201 3201 3202 3202 3202 3202 3202
3149 3150 3150 3151 3151 3152 3152 3152 3153 3153 3153 3153 3154 3154 3154 3155 3155 3156 3156 3156 3156 3157 3157 3157 3157 3157 3157 3158 3158 3158 3158 3159 3159 3159 3159 3159 3159 3159 3159 3159 3159 3159 3158 3158 3158 3159 3159 3161 3162 3164 3165 3166 3167 3169 3170 3171 3173 3174 3176 3179 3180 3182 3184 3186 3187 3189 3190 3191 3192 3193 3194 3195 3196 3198 3199 3199 3200 3201 3201 3201 3202 3202 3202 3202 3202
3148 3149 3150 3150 3151 3151 3151 3152 3152 3152 3152 3152 3153 3153 3153 3153 3154 3154 3154 3155 3155 3156 3156 3156 3156 3157 3157 3157 3157 3157 3157 3158 3158 3158 3158 3158 3158 3158 3158 3158 3158 3158 3158 3157 3157 3158 3158 3159 3160 3162 3163 3164 3166 3168 3170 3171 3172 3173 3175 3177 3179 3181 3183 3184 3186 3187 3189 3190 3191 3192 3193 3195 3196 3197 3198 3199 3200 3200 3201 3201 3202 3202 3202 3202 3202
3148 3148 3149 3149 3150 3150 3151 3151 3151 3151 3151 3152 3151 3151 3152 3152 3153 3153 3153 3153 3154 3155 3155 3155 3156 3156 3156 3156 3156 3156 3157 3157 3157 3157 3157 3158 3158 3158 3157 3157 3157 3157 3157 3157 3157 3157 3157 3158 3159 3160 3161 3163 3164 3166 3168 3170 3171 3172 3174 3176 3178 3180 3181 3183 3184 3186 3187 3189 3190 3191 3192 3194 3195 3196 3197 3198 3199 3200 3201 3201 3201 3201 3202 3201 3201
3147 3148 3148 3148 3149 3150 3150 3150 3150 3150 3150 3151 3151 3150 3151 3151 3152 3152 3152 3153 3153 3154 3154 3154 3155 3155 3155 3155 3155 3156 3156 3156 3157 3157 3157 3157 3157 3157 3157 3156 3156 3156 3157 3157 3156 3156 3156 3157 3157 3159 3160 3162 3163 3165 3167 3169 3170 3171 3173 3174 3176 3178 3180 3182 3183 3185 3186 3188 3189 3190 3192 3193 3194 3195 3196 3197 3198 3199 3200 3200 3201 3201 3201 3201 3201
3146 3147 3147 3148 3148 3149 3149 3149 3149 3149 3149 3149 3149 3150 3150 3150 3150 3150 3151 3151 3152 3152 3153 3153 3154 3154 3154 3154 3154 3155 3155 3155 3156 3156 3156 3156 3156 3156 3156 3156 3156 3156 3156 3156 3156 3155 3156 3157 3157 3158 3159 3161 3163 3164 3166 3168 3169 3171 3172 3173 3175 3177 3179 3180 3182 3184 3185 3186 3188 3189 3191 3192 3193 3194 3195 3196 3197 3198 3199 3200 3200 3200 3200 3200 3200
3146 3146 3146 3147 3147 3148 3148 3148 3148 3148 3148 3148 3148 3148 3148 3149 3149 3149 3149 3149 3150 3151 3151 3152 3152 3153 3153 3153 3153 3154 3154 3154 3154 3154 3155 3155 3155 3155 3155 3155 3156 3156 3156 3156 3156 3155 3155 3156 3156 3157 3158 3160 3162 3163 3165 3167 3169 3170 3171 3172 3174 3176 3177 3179 3181 3182 3184 3185 3187 3188 3190 3191 3192 3193 3194 3195 3196 3197 3198 3198 3199 3199 3200 3200 3200
3145 3146 3146 3146 3146 3147 3147 3147 3147 3147 3147 3147 3147 3147 3147 3147 3147 3147 3147 3148 3149 3149 3149 3150 3151 3151 3151 3151 3152 3152 3153 3153 3153 3153 3154 3154 3154 3154 3155 3155 3155 3155 3155 3155 3155 3155 3154 3154 3155 3156 3157 3158 3160 3162 3164 3166 3168 3169 3170 3171 3173 3174 3176 3177 3179 3181 3182 3184 3185 3187 3188 3190 3191 3192 3193 3194 3195 3196 3197 3197 3198 3198 3199 3199 3199
3145 3145 3145 3145 3145 3146 3146 3146 3146 3146 3145 3145 3145 3146 3146 3146 3146 3146 3146 3146 3147 3148 3148 3149 3149 3150 3150 3150 3150 3151 3151 3152 3152 3152 3152 3152 3153 3153 3154 3154 3155 3155 3155 3155 3154 3154 3154 3154 3154 3155 3156 3157 3159 3161 3162 3165 3167 3168 3169 3170 3171 3173 3175 3176 3177 3179 3181 3182 3184 3185 3187 3188 3189 3190 3192 3193 3194 3194 3195 3196 3196 3197 3197 3198 3198
3144 3144 3145 3145 3145 3145 3145 3145 3145 3144 3144 3144 3144 3144 3144 3144 3145 3145 3145 3145 3146 3146 3147 3147 3148 3148 3148 3148 3149 3149 3150 3151 3151 3151 3151 3151 3152 3152 3153 3154 3154 3154 3155 3154 3154 3154 3153 3154 3154 3156 3156 3156 3157 3159 3160 3163 3165 3167 3167 3168 3170 3171 3173 3175 3176 3177 3179 3181 3182 3184 3185 3186 3188 3189 3190 3191 3192 3193 3194 3194 3195 3196 3196 3197 3197
3143 3144 3144 3144 3144 3144 3144 3144 3143 3143 3143 3143 3143 3143 3143 3143 3143 3143 3144 3144 3144 3145 3145 3146 3146 3147 3147 3147 3148 3148 3148 3149 3149 3149 3150 3150 3151 3152 3152 3153 3153 3153 3154 3154 3154 3154 3153 3154 3155 3155 3156 3156 3156 3157 3159 3161 3163 3165 3166 3167 3168 3170 3172 3173 3175 3176 3177 3179 3180 3182 3183 3185 3186 3187 3189 3190 3191 3192 3192 3193 3194 3194 3195 3195 3196
3143 3143 3143 3143 3143 3143 3143 3142 3142 3142 3141 3141 3141 3141 3142 3142 3142 3142 3142 3142 3143 3144 3144 3144 3145 3145 3146 3146 3146 3147 3147 3148 3148 3148 3148 3149 3151 3152 3151 3151 3152 3152 3153 3154 3154 3154 3154 3154 3155 3155 3156 3155 3155 3156 3157 3158 3161 3163 3165 3165 3166 3168 3170 3171 3173 3174 3176 3177 3179 3180 3181 3183 3184 3186 3187 3188 3189 3190 3191 3192 3192 3193 3194 3194 3194
3142 3142 3142 3142 3141 3141 3141 3141 3141 3141 3140 3140 3140 3140 3140 3141 3141 3141 3141 3141 3142 3143 3143 3144 3144 3144 3144 3145 3145 3146 3146 3147 3146 3146 3146 3148 3150 3151 3150 3150 3151 3152 3153 3153 3153 3153 3153 3154 3154 3155 3155 3155 3155 3155 3155 3156 3158 3161 3163 3164 3165 3166 3168 3169 3171 3173 3174 3175 3177 3178 3180 3181 3182 3184 3185 3186 3187 3188 3189 3190 3191 3192 3192 3193 3193
3141 3141 3141 3140 3140 3140 3140 3140 3140 3140 3140 3139 3139 3139 3139 3139 3139 3139 3140 3140 3141 3141 3142 3142 3143 3142 3143 3144 3144 3145 3145 3145 3145 3145 3145 3147 3150 3149 3148 3150 3151 3151 3152 3152 3152 3152 3152 3153 3153 3154 3154 3155 3155 3154 3154 3155 3156 3158 3161 3163 3163 3164 3165 3167 3169 3171 3173 3174 3175 3176 3177 3179 3180 3182 3183 3184 3186 3187 3188 3189 3189 3190 3191 3191 3192
3140 3140 3140 3139 3139 3139 3139 3139 3139 3139 3139 3138 3138 3138 3138 3138 3138 3138 3138 3138 3139 3140 3140 3141 3141 3141 3141 3142 3143 3143 3143 3143 3143 3144 3144 3145 3149 3148 3147 3150 3151 3149 3149 3150 3150 3151 3151 3151 3152 3153 3153 3153 3154 3154 3154 3154 3155 3157 3158 3160 3162 3162 3163 3165 3167 3169 3170 3171 3173 3174 3175 3177 3178 3180 3181 3182 3184 3185 3186 3187 3188 3188 3189 3190 3190
3139 3139 3139 3138 3138 3138 3138 3138 3138 3137 3137 3137 3136 3136 3136 3136 3136 3136 3137 3137 3137 3138 3138 3139 3139 3139 3140 3140 3142 3142 3142 3142 3142 3144 3143 3143 3147 3148 3147 3148 3148 3147 3147 3148 3149 3150 3150 3151 3151 3152 3152 3152 3152 3153 3153 3153 3154 3155 3156 3158 3160 3161 3161 3162 3164 3166 3168 3169 3171 3172 3174 3175 3176 3178 3179 3180 3182 3183 3184 3185 3186 3187 3187 3188 3189
3137 3137 3137 3137 3137 3137 3137 3137 3137 3136 3136 3135 3135 3135 3135 3135 3135 3135 3135 3135 3136 3136 3137 3137 3137 3137 3138 3139 3140 3140 3140 3140 3141 3142 3142 3142 3145 3147 3146 3146 3146 3146 3146 3147 3147 3148 3148 3149 3150 3151 3151 3151 3152 3152 3152 3152 3152 3153 3154 3156 3157 3159 3160 3161 3162 3163 3165 3167 3169 3170 3172 3173 3174 3176 3177 3178 3180 3181 3182 3183 3184 3185 3185 3186 3187
3136 3136 3136 3136 3136 3136 3136 3136 3136 3135 3135 3135 3134 3134 3133 3133 3133 3133 3133 3134 3134 3135 3135 3135 3136 3136 3136 3137 3137 3137 3137 3138 3138 3140 3142 3142 3142 3143 3144 3144 3144 3144 3145 3145 3146 3146 3147 3148 3149 3149 3150 3150 3151 3151 3151 3151 3151 3152 3153 3154 3155 3156 3158 3159 3160 3161 3162 3164 3166 3168 3169 3171 3172 3174 3175 3176 3177 3179 3180 3181 3182 3183 3183 3184 3185
3135 3135 3135 3135 3135 3135 3135 3135 3135 3135 3134 3134 3133 3132 3132 3131 3131 3131 3132 3132 3132 3132 3133 3133 3134 3134 3134 3135 3134 3135 3135 3136 3136 3137 3140 3141 3140 3141 3142 3143 3142 3142 3143 3143 3144 3146 3148 3148 3148 3148 3149 3149 3149 3149 3150 3150 3150 3151 3152 3152 3153 3154 3155 3157 3158 3159 3160 3162 3163 3165 3167 3169 3170 3171 3172 3174 3175 3176 3178 3179 3180 3180 3181 3181 3182
3134 3134 3134 3134 3134 3134 3134 3134 3134 3134 3133 3133 3132 3131 3131 3130 3130 3130 3130 3130 3130 3130 3131 3131 3132 3132 3132 3132 3132 3133 3134 3134 3135 3136 3137 3138 3138 3139 3140 3140 3140 3141 3141 3142 3144 3146 3147 3147 3146 3146 3147 3148 3148 3148 3149 3149 3149 3150 3151 3151 3151 3152 3153 3154 3156 3157 3158 3160 3161 3163 3164 3166 3168 3169 3170 3171 3173 3174 3175 3176 3177 3178 3179 3179 3179
3132 3132 3133 3133 3133 3133 3134 3134 3134 3133 3133 3132 3132 3131 3130 3129 3129 3129 3128 3128 3128 3128 3129 3129 3130 3130 3130 3130 3130 3131 3132 3133 3134 3134 3135 3135 3136 3137 3137 3138 3138 3139 3141 3141 3142 3143 3144 3144 3144 3145 3146 3147 3147 3147 3147 3148 3148 3149 3150 3150 3150 3151 3152 3153 3154 3155 3157 3158 3159 3160 3162 3164 3165 3167 3168 3169 3170 3171 3172 3173 3174 3175 3176 3177 3177
3131 3131 3132 3132 3132 3133 3133 3133 3133 3133 3132 3132 3131 3130 3129 3128 3128 3128 3127 3127 3127 3127 3127 3128 3128 3128 3128 3128 3129 3129 3130 3131 3132 3132 3133 3133 3133 3134 3135 3135 3136 3138 3139 3139 3140 3140 3141 3141 3142 3143 3145 3145 3146 3146 3147 3147 3147 3148 3149 3149 3149 3150 3151 3152 3153 3154 3155 3156 3157 3159 3160 3162 3163 3164 3165 3167 3168 3169 3169 3170 3171 3173 3174 3174 3174
3130 3131 3131 3131 3131 3132 3132 3132 3132 3132 3131 3131 3130 3130 3129 3128 3127 3126 3126 3126 3126 3126 3126 3127 3127 3127 3127 3127 3127 3127 3128 3129 3129 3129 3130 3131 3131 3131 3132 3133 3134 3136 3137 3137 3138 3139 3139 3140 3141 3142 3143 3144 3144 3145 3146 3146 3146 3147 3147 3147 3148 3149 3150 3151 3152 3153 3154 3155 3156 3157 3158 3159 3160 3161 3162 3164 3165 3166 3166 3167 3168 3170 3170 3171 3172
3129 3130 3130 3130 3131 3131 3132 3132 3132 3131 3131 3131 3130 3129 3128 3127 3126 3126 3125 3125 3125 3125 3125 3126 3126 3126 3126 3125 3125 3126 3126 3126 3127 3127 3127 3128 3129 3129 3129 3130 3132 3133 3134 3135 3136 3137 3138 3138 3138 3139 3141 3141 3142 3143 3144 3144 3145 3145 3145 3145 3147 3149 3149 3150 3152 3152 3153 3154 3155 3156 3156 3157 3158 3158 3160 3161 3162 3162 3163 3164 3165 3166 3167 3168 3169
3128 3129 3129 3129 3130 3130 3131 3131 3131 3131 3131 3130 3130 3129 3128 3127 3126 3126 3125 3125 3125 3125 3125 3125 3125 3125 3125 3124 3124 3124 3125 3125 3125 3125 3125 3126 3127 3127 3127 3128 3129 3131 3132 3133 3134 3136 3137 3136 3136 3137 3138 3139 3140 3141 3142 3143 3143 3143 3143 3143 3145 3147 3148 3149 3150 3151 3152 3153 3153 3154 3155 3155 3155 3156 3157 3158 3159 3160 3160 3161 3162 3163 3164 3165 3166
3127 3127 3128 3128 3129 3129 3130 3130 3130 3130 3130 3130 3130 3129 3128 3127 3126 3125 3125 3124 3124 3124 3124 3124 3124 3124 3124 3124 3124 3123 3123 3123 3123 3123 3123 3124 3125 3125 3125 3125 3127 3128 3129 3131 3132 3133 3134 3134 3135 3135 3136 3137 3139 3140 3141 3141 3141 3142 3142 3142 3144 3146 3147 3148 3149 3150 3150 3151 3152 3153 3153 3154 3154 3155 3155 3156 3157 3157 3158 3159 3160 3161 3161 3162 3163
3125 3126 3126 3127 3128 3128 3129 3129 3130 3130 3130 3129 3129 3128 3127 3127 3126 3125 3124 3124 3124 3124 3124 3124 3124 3124 3124 3123 3123 3123 3123 3122 3122 3122 3122 3123 3123 3123 3123 3124 3125 3126 3127 3128 3130 3131 3132 3133 3133 3134 3135 3136 3137 3138 3139 3139 3140 3140 3141 3142 3143 3144 3145 3146 3147 3148 3149 3149 3150 3151 3152 3152 3153 3154 3154 3155 3155 3156 3156 3157 3158 3158 3159 3160 3160
3123 3124 3125 3126 3126 3127 3128 3128 3129 3129 3129 3129 3128 3128 3127 3126 3125 3124 3124 3124 3124 3124 3124 3124 3124 3124 3123 3123 3123 3122 3122 3122 3122 3122 3121 3121 3122 3122 3122 3123 3123 3124 3125 3126 3127 3129 3130 3131 3131 3132 3133 3134 3135 3136 3137 3138 3138 3139 3140 3141 3141 3142 3143 3144 3145 3146 3147 3147 3148 3149 3150 3151 3152 3153 3153 3154 3154 3155 3155 3156 3156 3157 3157 3158 3158
3121 3122 3123 3124 3125 3126 3126 3127 3127 3128 3128 3128 3128 3127 3126 3126 3125 3124 3124 3123 3123 3124 3124 3124 3124 3123 3123 3123 3122 3122 3122 3121 3121 3121 3121 3121 3121 3121 3121 3121 3122 3122 3123 3124 3125 3126 3128 3129 3130 3130 3131 3132 3132 3134 3135 3136 3136 3137 3137 3138 3139 3140 3141 3142 3143 3144 3145 3146 3146 3147 3148 3149 3150 3151 3152 3152 3153 3153 3154 3155 3155 3155 3156 3156 3156
3119 3121 3122 3123 3123 3124 3125 3125 3126 3126 3127 3127 3127 3127 3126 3125 3124 3124 3123 3123 3123 3123 3123 3123 3123 3123 3123 3122 3122 3122 3121 3121 3121 3121 3121 3120 3120 3120 3120 3121 3121 3122 3122 3122 3123 3124 3125 3126 3127 3128 3128 3129 3130 3131 3132 3133 3133 3134 3135 3135 3136 3137 3138 3139 3140 3141 3142 3143 3144 3145 3146 3147 3148 3149 3149 3150 3151 3151 3152 3153 3153 3154 3154 3154 3154
3117 3119 3120 3121 3122 3123 3123 3124 3124 3125 3126 3126 3126 3126 3126 3125 3124 3123 3123 3123 3123 3122 3122 3122 3122 3122 3122 3122 3121 3121 3121 3120 3120 3120 3120 3120 3120 3120 3120 3120 3120 3121 3121 3122 3122 3122 3123 3124 3125 3125 3126 3126 3127 3128 3129 3130 3130 3131 3131 3132 3133 3134 3135 3136 3137 3139 3139 3140 3141 3142 3143 3145 3145 3146 3147 3147 3148 3149 3150 3151 3151 3152 3152 3152 3152
3114 3116 3118 3119 3120 3121 3122 3123 3123 3124 3125 3125 3126 3125 3125 3125 3124 3123 3123 3122 3122 3122 3121 3121 3121 3121 3121 3121 3121 3120 3120 3120 3119 3119 3119 3119 3119 3119 3119 3119 3119 3120 3120 3121 3121 3121 3122 3122 3123 3124 3124 3124 3125 3125 3126 3127 3127 3128 3128 3129 3130 3130 3132 3133 3134 3136 3136 3137 3138 3139 3141 3141 3142 3143 3143 3144 3145 3146 3147 3148 3148 3149 3149 3149 3150
3111 3113 3116 3117 3118 3119 3120 3121 3122 3123 3123 3124 3124 3125 3125 3124 3123 3123 3122 3122 3121 3121 3121 3120 3120 3120 3120 3120 3120 3119 3119 3119 3119 3118 3118 3118 3118 3119 3119 3119 3119 3119 3119 3119 3120 3120 3120 3121 3122 3122 3122 3123 3123 3123 3124 3124 3125 3126 3126 3126 3127 3128 3128 3129 3131 3132 3133 3134 3135 3136 3137 3138 3139 3140 3140 3141 3142 3143 3144 3145 3145 3145 3146 3147 3147